星链-35058 (STARLINK-35058)

导读

STARLINK-35058是美国SpaceX星链星座中的一颗卫星,于2025年8月30日发射。作为星链低轨互联网星座的组成部分,它承担着为全球提供高速卫星互联网接入服务的任务,尤其能够为偏远地区、海上和航空等场景提供网络覆盖,进一步扩充了星链星座的服务规模与覆盖能力。

基本信息
目录编号:
65394
目录名称:
STARLINK-35058
国际标识:
2025-191R
轨道中心:
EARTH
卫星名称:
星链-35058
卫星全名:
星链-35058 (STARLINK-35058)
卫星状态:
在轨 (已飞行370 天)
发射日期:
2025-08-30 UTC
国别 :
美国 (US)
星等 :
--
轨道信息
数据来源 国际轨道数据
星历时间: 2026-09-04T14:00:02+0800
11小时前
查看轨道信息
半长轴: 6843.897km
偏心率: 0.0001391
轨道倾角: 97.288°
近地点辐角 70.828°
升交点赤经 113.433°
平近点角 321.267°
近地点: 464.808km
远地点: 466.712km
周期: 93.911分钟
每日圈数: 15.333724
详细信息
固有亮度:
5
最大亮度:
2.5
卫星平台:
Starlink V1.0
覆盖范围:
全球
运营商:
太空探索技术公司
运营商所在国:
美国
制造商(研发单位):
太空探索技术公司
制造商所在国:
美国
使用方式:
暂无
卫星简介
Starlink 计划是 SpaceX 推出的全球卫星互联网项目,通过发射低轨道卫星,为全球尤其是偏远地区提供高速、低延迟的互联网服务。自 2019 年起,Starlink 已部署数千颗卫星,旨在缩小全球数字鸿沟,推动互联网普及。该项目还为军事、航空等行业提供通信支持,带来广泛经济效益。
2D轨道图
3D轨道图
轨道高度分析图
轨道倾角分析图
轨道综合分析图
查看轨道综合分析图
交会数据列表
事件ID 空间交会对象 最接近时刻(TCA) 交会距离 交会风险概率(CRP) 交会风险指数(CRI) 操作
CDM_260905-234506-539406-943821
2026-09-05T
23:45:27+0000
0.305 km
远距离
1.373797E-4 高风险 0.78
CDM_260904-212206-409706-539421
2026-09-04T
21:22:45+0000
1.549 km
极远距离
5.953545E-6 低风险 0.5
CDM_260906-003206-539406-943821
2026-09-06T
00:32:26+0000
0.897 km
远距离
5.789727E-6 低风险 0.5
CDM_260905-165705-185906-539421
2026-09-05T
16:57:19+0000
2.365 km
极远距离
1.925576E-6 低风险 0.41
CDM_260905-105006-026406-539421
2026-09-05T
10:50:54+0000
2.440 km
极远距离
1.832526E-6 低风险 0.4
CDM_260827-233404-303006-539422
2026-08-27T
23:34:35+0000
2.242 km
极远距离
1.826116E-6 低风险 0.4
CDM_260830-144304-939606-539422
2026-08-30T
14:43:35+0000
2.664 km
极远距离
1.578706E-6 低风险 0.39
CDM_260905-213404-836506-539421
2026-09-05T
21:34:06+0000
2.761 km
极远距离
1.372559E-6 低风险 0.38
CDM_260906-114604-736106-539421
2026-09-06T
11:46:14+0000
2.928 km
极远距离
1.368203E-6 低风险 0.38
CDM_260905-012904-773306-539421
2026-09-05T
01:29:51+0000
2.619 km
极远距离
9.556911E-7 极低风险 0.35